Newburgh, NY

7:04 AM EDT on March 30, 2017 (GMT -0400)
Stewart International

Weather History for KSWF - October, 2012

Change the Weather History Date:

Tuesday, October 9, 2012

  Actual Average Record
Temperature  
Mean Temperature 52 °F -  
Max Temperature 59 °F 62 °F 84 °F (2011)
Min Temperature 46 °F 42 °F 28 °F (1974)
Degree Days  
Heating Degree Days 12    
Growing Degree Days 2 (Base 50)    
Moisture  
Dew Point 48 °F    
Average Humidity 83    
Maximum Humidity 93    
Minimum Humidity 72    
Precipitation  
Precipitation 0.00 in - - ()
Sea Level Pressure  
Sea Level Pressure 30.19 in    
Wind  
Wind Speed 6 mph (ENE)    
Max Wind Speed 14 mph    
Max Gust Speed 14 mph    
Visibility 16 miles    
Events Rain    
Averages and records for this station are not official NWS values.
T = Trace of Precipitation, MM = Missing Value Source: NWS Daily Summary

Daily Weather History Graph

Daily Weather History Graph

Search for Another Location

Airport or City:

Trip Planner

Search our weather history database for the weather conditions in past years. The results will help you decide how hot, cold, wet, or windy it might be!

Date:

Astronomy

Oct. 09, 2012 Rise Set
Actual Time 7:02 AM EDT 6:24 PM EDT
Civil Twilight 6:34 AM EDT 6:51 PM EDT
Nautical Twilight 6:02 AM EDT 7:23 PM EDT
Astronomical Twilight 5:30 AM EDT 7:55 PM EDT
Moon 12:31 AM EDT (10/9) 2:53 PM EDT (10/9)
Length of Visible Light 12h 17m
Length of Day
11h 21m
Last Quarter, 37% of the Moon is Illuminated
Oct 9
Last Quarter
Oct 15
New
Oct 21
First Quarter
Oct 29
Full
Nov 6
Last Quarter

Hourly Weather History & Observations

Time (EDT) Temp. Windchill Dew Point Humidity Pressure Visibility Wind Dir Wind Speed Gust Speed Precip Events Conditions
12:45 AM 48.2 °F - 46.4 °F 93% 30.25 in 10.0 mi Calm Calm - N/A   Overcast
2:45 AM 46.4 °F 43.5 °F 44.6 °F 93% 30.24 in 10.0 mi ENE 5.8 mph - N/A   Mostly Cloudy
3:45 AM 46.4 °F 43.5 °F 44.6 °F 93% 30.24 in 10.0 mi NNE 5.8 mph - N/A   Mostly Cloudy
4:45 AM 48.2 °F - 44.6 °F 87% 30.25 in 10.0 mi NE 5.8 mph - N/A   Overcast
6:45 AM 48.2 °F - 44.6 °F 87% 30.24 in 15.0 mi ENE 9.2 mph - N/A Rain Light Rain
7:45 AM 48.2 °F - 44.6 °F 87% 30.25 in 20.0 mi ENE 5.8 mph - N/A   Mostly Cloudy
8:45 AM 50.0 °F - 46.4 °F 87% 30.24 in 20.0 mi Variable 3.5 mph - N/A   Mostly Cloudy
9:45 AM 51.8 °F - 46.4 °F 82% 30.24 in 20.0 mi ENE 6.9 mph - N/A   Mostly Cloudy
10:55 AM 53.6 °F - 48.2 °F 82% 30.24 in 20.0 mi ENE 8.1 mph 13.8 mph N/A   Mostly Cloudy
11:45 AM 55.4 °F - 48.2 °F 77% 30.22 in 20.0 mi ENE 9.2 mph - N/A   Overcast
12:45 PM 57.2 °F - 50.0 °F 77% 30.20 in 20.0 mi ENE 9.2 mph - N/A   Overcast
1:45 PM 59.0 °F - 50.0 °F 72% 30.17 in 20.0 mi ENE 13.8 mph - N/A   Overcast
2:45 PM 59.0 °F - 50.0 °F 72% 30.16 in 20.0 mi ENE 13.8 mph - N/A   Overcast
3:50 PM 57.2 °F - 50.0 °F 77% 30.15 in 20.0 mi East 6.9 mph - N/A   Overcast
4:45 PM 57.2 °F - 50.0 °F 77% 30.15 in 20.0 mi East 11.5 mph - N/A   Overcast
5:45 PM 55.4 °F - 50.0 °F 82% 30.15 in 20.0 mi ESE 11.5 mph - N/A   Overcast
6:45 PM 55.4 °F - 50.0 °F 82% 30.14 in 10.0 mi East 9.2 mph - N/A   Overcast
7:45 PM 55.4 °F - 50.0 °F 82% 30.14 in 10.0 mi East 8.1 mph - N/A   Overcast
8:45 PM 55.4 °F - 50.0 °F 82% 30.14 in 10.0 mi East 11.5 mph - N/A   Overcast
9:45 PM 53.6 °F - 50.0 °F 88% 30.13 in 10.0 mi East 8.1 mph - N/A   Overcast
10:55 PM 53.6 °F - 50.0 °F 88% 30.12 in 15.0 mi East 5.8 mph - N/A   Overcast
11:45 PM 53.6 °F - 50.0 °F 88% 30.10 in 10.0 mi ESE 9.2 mph - N/A   Overcast